Lake Andrews Weather Center

Moon Phase Calendar



Lake Andrews Water Level
Online Cameras

 


      

Current Conditions in Georgetown
6/30/2022 1:14:42 AM

72°F
Feels Like 74
Clouds
Humidity
96%
Pressure
30.18"
Wind
0
Dew Point
71°F
UV Index
0/10 (Low)
Visibility
6 mi

Hourly Forecast

Date & Time Thu, Jun 30
1:00 AM
Thu, Jun 30
2:00 AM
Thu, Jun 30
3:00 AM
Thu, Jun 30
4:00 AM
Thu, Jun 30
5:00 AM
Thu, Jun 30
6:00 AM
Thu, Jun 30
7:00 AM
Thu, Jun 30
8:00 AM
Thu, Jun 30
9:00 AM
Thu, Jun 30
10:00 AM
Thu, Jun 30
11:00 AM
Thu, Jun 30
12:00 PM
Thu, Jun 30
1:00 PM
Thu, Jun 30
2:00 PM
Thu, Jun 30
3:00 PM
Thu, Jun 30
4:00 PM
Thu, Jun 30
5:00 PM
Thu, Jun 30
6:00 PM
Thu, Jun 30
7:00 PM
Thu, Jun 30
8:00 PM
Thu, Jun 30
9:00 PM
Thu, Jun 30
10:00 PM
Thu, Jun 30
11:00 PM
Fri, Jul 1
12:00 AM
Fri, Jul 1
1:00 AM
Fri, Jul 1
2:00 AM
Fri, Jul 1
3:00 AM
Fri, Jul 1
4:00 AM
Fri, Jul 1
5:00 AM
Fri, Jul 1
6:00 AM
Fri, Jul 1
7:00 AM
Fri, Jul 1
8:00 AM
Fri, Jul 1
9:00 AM
Fri, Jul 1
10:00 AM
Fri, Jul 1
11:00 AM
Fri, Jul 1
12:00 PM
Fri, Jul 1
1:00 PM
Fri, Jul 1
2:00 PM
Fri, Jul 1
3:00 PM
Fri, Jul 1
4:00 PM
Fri, Jul 1
5:00 PM
Fri, Jul 1
6:00 PM
Fri, Jul 1
7:00 PM
Fri, Jul 1
8:00 PM
Fri, Jul 1
9:00 PM
Fri, Jul 1
10:00 PM
Fri, Jul 1
11:00 PM
Sat, Jul 2
12:00 AM
Condition
Clouds

Clouds

Clouds

Clouds

Clouds

Clouds

Clouds

Clouds

Clouds

Clouds

Clouds

Rain

Rain

Clouds

Clouds

Clouds

Clouds

Clouds

Clouds

Clouds

Clouds

Rain

Rain

Rain

Rain

Clouds

Clouds

Clouds

Rain

Rain

Rain

Rain

Clouds

Clouds

Clouds

Clouds

Rain

Rain

Rain

Rain

Clouds

Rain

Rain

Rain

Rain

Rain

Rain

Rain
Temperature 72°F72°F72°F71°F70°F70°F70°F72°F76°F80°F85°F88°F90°F91°F88°F89°F87°F86°F85°F84°F82°F81°F79°F75°F73°F73°F72°F72°F71°F71°F72°F73°F76°F79°F83°F87°F87°F88°F89°F89°F88°F86°F80°F76°F74°F73°F72°F71°F
Feels Like 74°F73°F73°F72°F72°F71°F71°F74°F77°F83°F89°F91°F93°F94°F92°F92°F90°F90°F89°F87°F85°F83°F79°F76°F75°F74°F74°F73°F73°F73°F73°F75°F77°F79°F88°F92°F92°F93°F93°F93°F91°F90°F83°F78°F76°F74°F73°F73°F
Cloudiness 20%36%52%68%84%100%100%100%99%89%83%77%79%81%95%96%97%98%98%99%99%99%100%100%100%100%100%100%100%100%100%100%100%99%98%98%99%99%100%100%100%96%97%97%99%89%85%82%
Visibility 6 mi6 mi6 mi6 mi6 mi6 mi6 mi6 mi6 mi6 mi6 mi6 mi6 mi6 mi6 mi6 mi6 mi6 mi6 mi6 mi6 mi6 mi6 mi6 mi6 mi6 mi6 mi6 mi6 mi6 mi6 mi6 mi6 mi6 mi6 mi6 mi6 mi6 mi6 mi6 mi6 mi6 mi6 mi6 mi6 mi6 mi6 mi6 mi
Precipitation 73%71%0%0%8%8%8%8%0%0%0%39%27%43%88%66%48%25%18%16%17%35%58%87%96%72%16%6%33%27%47%82%18%12%17%25%60%77%48%48%53%53%56%64%88%90%91%91%
Humidity 96%95%94%92%92%94%94%90%83%71%59%51%47%45%50%49%53%54%57%60%61%64%70%84%91%92%94%96%96%96%95%92%85%77%65%56%57%56%52%50%50%56%72%84%90%94%95%95%
Dew Point 71°F70°F70°F69°F68°F68°F68°F70°F70°F70°F69°F68°F68°F67°F68°F67°F68°F68°F69°F69°F68°F68°F68°F70°F71°F71°F71°F71°F70°F70°F70°F71°F71°F71°F71°F70°F70°F70°F69°F68°F67°F68°F70°F71°F71°F71°F71°F70°F
Pressure 30.18"30.18"30.18"30.15"30.15"30.15"30.15"30.15"30.18"30.18"30.18"30.15"30.15"30.12"30.09"30.06"30.06"30.06"30.06"30.06"30.06"30.09"30.09"30.09"30.12"30.09"30.09"30.06"30.06"30.06"30.09"30.09"30.12"30.12"30.12"30.09"30.09"30.06"30.06"30.03"30.03"30"30"30.03"30.06"30.06"30.06"30.06"
Wind Speed 3.7 mph4.6 mph3.6 mph3.5 mph3.8 mph3.6 mph3.6 mph3.8 mph4 mph4.6 mph4.7 mph5.3 mph6 mph7.6 mph6.2 mph4.5 mph5 mph3.8 mph3.5 mph2.6 mph3.5 mph3 mph4.8 mph4.6 mph2.7 mph3.7 mph4.7 mph4 mph4.1 mph4.2 mph4.3 mph3.5 mph4.1 mph3.4 mph3 mph3.8 mph4.4 mph4.4 mph4.7 mph6 mph6 mph2.4 mph1.1 mph3.1 mph2.9 mph2.7 mph2.5 mph1.2 mph
Wind
Direction
107°
ESE
73°
ENE
74°
ENE
104°
ESE
100°
E
91°
E
82°
E
80°
E
82°
E
93°
E
104°
ESE
110°
ESE
105°
ESE
96°
E
88°
E
82°
E
78°
ENE
73°
ENE
77°
ENE
77°
ENE
91°
E
137°
SE
184°
S
222°
SW
257°
WSW
321°
NW
336°
NNW
353°
N
17°
NNE
38°
NE
51°
NE
64°
ENE
95°
E
91°
E
72°
ENE
44°
NE
32°
NNE
35°
NE
20°
NNE
353°
N
335°
NNW
350°
N
121°
ESE
173°
S
171°
S
167°
SSE
251°
WSW
326°
NW

Daily Forecast

Date High Low Precip. Humidity
Today
Jun 30

Rain
91 °F
70 °F
88%
47%
Friday
Jul 1

Rain
88 °F
71 °F
96%
57%
Saturday
Jul 2

Rain
91 °F
70 °F
96%
49%
Sunday
Jul 3

Rain
91 °F
72 °F
99%
52%
Monday
Jul 4

Rain
91 °F
71 °F
74%
51%
Tuesday
Jul 5

Rain
95 °F
73 °F
92%
40%
Wednesday
Jul 6

Clouds
96 °F
76 °F
0%
45%
Thursday
Jul 7

Clear
99 °F
77 °F
17%
35%
Friday
Jul 8

Rain
100 °F
77 °F
30%
34%
Saturday
Jul 9

Rain
99 °F
74 °F
100%
36%
Sunday
Jul 10

Rain
95 °F
73 °F
100%
41%
Monday
Jul 11

Clouds
97 °F
73 °F
0%
28%
Tuesday
Jul 12

Rain
98 °F
74 °F
64%
34%
Wednesday
Jul 13

Rain
88 °F
74 °F
95%
59%
Thursday
Jul 14

Clouds
92 °F
71 °F
0%
27%
Friday
Jul 15

Clouds
92 °F
70 °F
0%
39%

Temperature 8-14 Day Outlook



Precipitation 8-14 Day Outlook




Quick Links
Lake Andrews News
Lake Andrews Photos
Lake Andrews Videos




About Us
Contact Us
Site Map
Search Site
Advertise With Us
   
Andrews.USLakes.info
THE LAKE ANDREWS WEBSITE

Copyright 2022, Lakes Online
Privacy    |    Legal